Martha's Vineyard, MA

8:06 PM EDT on April 21, 2018 (GMT -0400)
Martha's Vineyard

Weather History for KMVY - July, 2013

Change the Weather History Date:

Wednesday, July 24, 2013

  Actual Average Record
Temperature  
Mean Temperature 78 °F -  
Max Temperature 87 °F 79 °F 91 °F (1952)
Min Temperature 71 °F 61 °F 48 °F (1997)
Cooling Degree Days 12    
Growing Degree Days 28 (Base 50)    
Moisture  
Dew Point 70 °F    
Average Humidity 77    
Maximum Humidity 94    
Minimum Humidity 55    
Precipitation  
Precipitation 0.00 in - - ()
Sea Level Pressure  
Sea Level Pressure 29.70 in    
Wind  
Wind Speed 5 mph (West)    
Max Wind Speed 12 mph    
Max Gust Speed -    
Visibility 10 miles    
Events      
Averages and records for this station are not official NWS values.
T = Trace of Precipitation, MM = Missing Value Source: NWS Daily Summary

Daily Weather History Graph

Daily Weather History Graph

Search for Another Location

Airport or City:

Astronomy

Jul. 24, 2013 Rise Set
Actual Time 5:30 AM EDT 8:07 PM EDT
Civil Twilight 4:58 AM EDT 8:39 PM EDT
Nautical Twilight 4:18 AM EDT 9:19 PM EDT
Astronomical Twilight 3:32 AM EDT 10:03 PM EDT
Moon 9:08 PM EDT (7/24) 7:48 AM EDT (7/24)
Length of Visible Light 15h 41m
Length of Day
14h 37m
Waning Gibbous, 95% of the Moon is Illuminated
Jul 24
Waning Gibbous
Jul 29
Last Quarter
Aug 6
New
Aug 14
First Quarter
Aug 20
Full

Hourly Weather History & Observations

Time (EDT) Temp. Heat Index Dew Point Humidity Pressure Visibility Wind Dir Wind Speed Gust Speed Precip Events Conditions
12:53 AM 73.0 °F - 70.0 °F 90% 29.61 in 9.0 mi SW 3.5 mph - N/A   Partly Cloudy
1:53 AM 72.0 °F - 70.0 °F 93% 29.60 in 6.0 mi SW 3.5 mph - N/A   Mostly Cloudy
2:53 AM 72.0 °F - 69.1 °F 91% 29.60 in 10.0 mi Calm Calm - N/A   Mostly Cloudy
3:53 AM 72.0 °F - 69.1 °F 91% 29.59 in 10.0 mi Calm Calm - N/A   Overcast
4:53 AM 71.1 °F - 69.1 °F 93% 29.60 in 9.0 mi WSW 4.6 mph - N/A   Partly Cloudy
5:53 AM 71.1 °F - 69.1 °F 93% 29.60 in 7.0 mi WSW 3.5 mph - N/A   Clear
6:45 AM 71.6 °F - 69.8 °F 94% 29.62 in 8.0 mi NW 3.5 mph - N/A   Scattered Clouds
6:53 AM 73.0 °F - 70.0 °F 90% 29.62 in 8.0 mi WNW 4.6 mph - N/A   Mostly Cloudy
7:53 AM 75.9 °F - 72.0 °F 87% 29.63 in 10.0 mi WNW 5.8 mph - N/A   Clear
8:53 AM 79.0 °F - 71.1 °F 77% 29.64 in 10.0 mi West 3.5 mph - N/A   Clear
9:53 AM 81.0 °F 85.2 °F 72.0 °F 74% 29.66 in 10.0 mi Variable 5.8 mph - N/A   Partly Cloudy
10:29 AM 82.4 °F 88.2 °F 73.4 °F 74% 29.68 in 10.0 mi SSW 8.1 mph - N/A   Mostly Cloudy
10:53 AM 82.9 °F 88.8 °F 73.0 °F 72% 29.68 in 10.0 mi Variable 4.6 mph - N/A   Scattered Clouds
11:00 AM 80.6 °F 85.4 °F 73.4 °F 79% 29.68 in 10.0 mi West 3.5 mph - N/A   Mostly Cloudy
11:13 AM 82.4 °F 87.2 °F 71.6 °F 70% 29.69 in 10.0 mi WNW 9.2 mph - N/A   Scattered Clouds
11:53 AM 84.0 °F 89.6 °F 72.0 °F 67% 29.70 in 10.0 mi SSW 6.9 mph - N/A   Partly Cloudy
12:53 PM 84.9 °F 88.8 °F 69.1 °F 59% 29.70 in 10.0 mi West 9.2 mph - N/A   Clear
1:53 PM 84.9 °F 87.6 °F 66.9 °F 55% 29.70 in 10.0 mi West 9.2 mph - N/A   Clear
2:53 PM 84.0 °F 87.0 °F 68.0 °F 58% 29.72 in 10.0 mi SW 11.5 mph - N/A   Clear
3:53 PM 84.0 °F 87.0 °F 68.0 °F 58% 29.73 in 10.0 mi SSW 10.4 mph - N/A   Clear
4:53 PM 82.9 °F 87.0 °F 70.0 °F 65% 29.73 in 10.0 mi SW 9.2 mph - N/A   Clear
5:53 PM 81.0 °F 84.1 °F 69.1 °F 67% 29.75 in 10.0 mi West 9.2 mph - N/A   Clear
6:53 PM 80.1 °F 83.2 °F 70.0 °F 71% 29.77 in 10.0 mi WSW 4.6 mph - N/A   Clear
7:53 PM 77.0 °F - 70.0 °F 79% 29.81 in 10.0 mi WSW 4.6 mph - N/A   Partly Cloudy
8:53 PM 73.9 °F - 69.1 °F 85% 29.82 in 10.0 mi NW 4.6 mph - N/A   Clear
9:53 PM 73.9 °F - 69.1 °F 85% 29.86 in 10.0 mi NE 8.1 mph - N/A   Clear
10:53 PM 73.9 °F - 66.0 °F 76% 29.87 in 10.0 mi NE 10.4 mph - N/A   Scattered Clouds
11:53 PM 73.9 °F - 63.0 °F 68% 29.90 in 10.0 mi NNE 8.1 mph - N/A   Mostly Cloudy